sat.trackr.live / text

‹ back to catalog

STARLINK-36908

NORAD 67945 · 2026-037P

PAYLOAD ACTIVE UNKNOWN

§ Identity

Operator
Country
US
Launch date
2026-02-24
Launch site
AFETR
Launch vehicle
Mass (kg)
RCS (m²)

Purposes: comms

External: N2YO · Heavens-Above · Gunter

§ Orbital elements

Epoch: 2026-05-25T04:36:08.400096Z

Period
94.27 min
Inclination
43.0018°
Eccentricity
0.0001318
Mean motion
15.27593051 rev/d
Perigee alt
482.1 km
Apogee alt
483.9 km
Semi-major
6,861.1 km
B*
6.7579e-4
RAAN
118.4163°
Arg perigee
249.4345°
Mean anomaly
110.6365°
Rev number
1,504

§ Raw data

STARLINK-369081 67945U 26037P   26145.19176389  .00018388  00000+0  67579-3 0  99952 67945  43.0018 118.4163 0001318 249.4345 110.6365 15.27593051 15047

JSON: /api/v1/satellites/67945 · /tle

For live sub-satellite position, see the globe view (requires WebGL).

§ Visibility from observer

Set your observer location to see the next 7 days of passes ≥ 10°. The values pass through the URL so the page stays shareable.

No JS? Fill the form by hand. The geolocation button needs JavaScript.